DW7059 Maintenon FR current weather conditions

sailwx.info

Wind from 238

Air temperature 11.7° C
Dewpoint 10.7° C

Last reported at 2019-Jun-16 23:04 UTC.
Time now 2019-Jun-17 02:47 UTC

Location: N 48°35' E 001°35'.
View on Google Maps.

See reports from other nearby stations

  
Tides and Currents Weather Stations Pressure Air Temp Water Temp Dewpoint Dewpoint Depression Visibility Wind Speed Wind Dir Waves Ship Positions
date/time (UTC)wind fromknots sea level pressurealtimeterstation pressurevisibilityair tempwater tempwave heightnotes
2019-Jun-16 23:04 238 11.7
2019-Jun-16 22:59 238 11.7
2019-Jun-16 22:55 238 11.7
2019-Jun-16 22:49 238 11.7
2019-Jun-16 22:44 238 11.7
2019-Jun-16 22:40 238 11.7
2019-Jun-16 22:34 238 11.7
2019-Jun-16 22:29 238 11.7
2019-Jun-16 22:24 238 12.2
2019-Jun-16 22:19 238 12.2
2019-Jun-16 22:14 238 12.2
2019-Jun-16 22:09 238 12.2
2019-Jun-16 22:04 238 12.2
2019-Jun-16 21:59 238 12.8
2019-Jun-16 21:54 238 12.8
2019-Jun-16 21:50 238 12.8
2019-Jun-16 21:44 238 12.8
2019-Jun-16 21:39 238 12.8
2019-Jun-16 21:35 238 13.3
2019-Jun-16 21:29 238 13.3
2019-Jun-16 21:24 238 13.3
2019-Jun-16 21:19 238 13.3
2019-Jun-16 21:14 238 13.3
2019-Jun-16 21:10 238 13.9
2019-Jun-16 21:04 238 13.9
2019-Jun-16 20:59 238 13.9
2019-Jun-16 20:55 238 13.9
2019-Jun-16 20:49 238 13.9
2019-Jun-16 20:44 238 14.4
2019-Jun-16 20:39 238 14.4
2019-Jun-16 20:34 238 14.4
2019-Jun-16 20:30 238 14.4
2019-Jun-16 20:24 238 14.4
2019-Jun-16 20:19 238 15.0
2019-Jun-16 20:14 238 15.0
2019-Jun-16 20:10 238 15.6
2019-Jun-16 20:06 238 15.6
2019-Jun-16 19:59 238 15.6
2019-Jun-16 19:54 238 15.6
2019-Jun-16 19:49 238 16.1
2019-Jun-16 19:44 238 16.1
2019-Jun-16 19:40 238 16.7
2019-Jun-16 19:34 238 16.7
2019-Jun-16 19:29 238 17.2
2019-Jun-16 19:25 238 17.2
2019-Jun-16 19:19 238 17.8
2019-Jun-16 19:15 238 18.3
2019-Jun-16 19:09 238 18.3
2019-Jun-16 19:04 238 18.9
2019-Jun-16 19:00 238 19.4
2019-Jun-16 18:54 238 19.4
2019-Jun-16 18:49 236 19.4
2019-Jun-16 18:44 236 20.0
2019-Jun-16 18:39 236 20.0
2019-Jun-16 18:35 244 20.6
2019-Jun-16 18:29 242 21.1
2019-Jun-16 18:24 217 21.1
2019-Jun-16 18:20 216 21.7
2019-Jun-16 18:14 216 21.7
2019-Jun-16 18:09 194 21.7
2019-Jun-16 18:05 246 21.7
2019-Jun-16 17:59 225 22.2
2019-Jun-16 17:54 169 21.7
2019-Jun-16 17:49 214 21.7
2019-Jun-16 17:44 204 21.7
2019-Jun-16 17:40 248 21.7
2019-Jun-16 17:34 266 21.7
2019-Jun-16 17:29 147 22.2
2019-Jun-16 17:24 205 22.8
2019-Jun-16 17:19 173 21.7
2019-Jun-16 17:15 254 21.7
2019-Jun-16 17:09 279 21.1
2019-Jun-16 17:04 244 21.7
2019-Jun-16 17:00 217 21.7
2019-Jun-16 16:54 215 21.1
2019-Jun-16 16:49 174 22.2
2019-Jun-16 16:45 164 22.8
2019-Jun-16 16:39 190 0 gusting 5 22.8
2019-Jun-16 16:34 223 23.3
2019-Jun-16 16:30 197 22.8
2019-Jun-16 16:24 292 22.2
2019-Jun-16 16:20 133 22.2
2019-Jun-16 16:14 304 22.2
2019-Jun-16 16:09 192 21.1
2019-Jun-16 16:05 236 21.1
2019-Jun-16 15:59 282 21.1
2019-Jun-16 15:54 265 22.8
2019-Jun-16 15:49 290 22.2
2019-Jun-16 15:44 228 0 gusting 4 22.2
2019-Jun-16 15:40 240 0 gusting 4 22.2
2019-Jun-16 15:34 201 22.8
2019-Jun-16 15:29 253 22.8
2019-Jun-16 15:25 234 21.7
2019-Jun-16 15:19 193 0 gusting 7 22.8
2019-Jun-16 15:14 177 0 gusting 7 22.8
2019-Jun-16 15:10 198 0 gusting 7 23.3
2019-Jun-16 15:04 254 0 gusting 7 23.3
2019-Jun-16 15:00 180 22.8
2019-Jun-16 14:54 250 0 gusting 5 21.7
2019-Jun-16 14:49 250 0 gusting 5 21.1
2019-Jun-16 14:45 245 21.7
2019-Jun-16 14:39 240 21.7
2019-Jun-16 14:34 278 0 gusting 8 21.7
2019-Jun-16 14:29 265 0 gusting 8 21.7
2019-Jun-16 14:24 229 0 gusting 6 22.8
2019-Jun-16 14:20 265 0 gusting 6 22.8
2019-Jun-16 14:14 177 22.2
2019-Jun-16 14:09 271 0 gusting 4 21.7
2019-Jun-16 14:04 242 0 gusting 8 21.1
2019-Jun-16 13:59 238 0 gusting 6 21.1
2019-Jun-16 13:55 253 0 gusting 6 21.1
2019-Jun-16 13:49 227 0 gusting 6 21.7
2019-Jun-16 13:44 303 0 gusting 6 21.1
2019-Jun-16 13:40 265 0 gusting 6 21.1
2019-Jun-16 13:34 251 21.1
2019-Jun-16 13:29 296 0 gusting 5 21.7
2019-Jun-16 13:25 202 0 gusting 5 21.7
2019-Jun-16 13:19 281 21.7
2019-Jun-16 13:15 271 20.6
2019-Jun-16 13:09 300 0 gusting 5 20.6
2019-Jun-16 13:04 217 0 gusting 7 21.1
2019-Jun-16 13:00 231 1 gusting 7 21.1
2019-Jun-16 12:54 215 0 gusting 8 21.1
2019-Jun-16 12:49 215 0 gusting 8 20.0
2019-Jun-16 12:45 205 20.6
2019-Jun-16 12:39 231 0 gusting 5 20.6
2019-Jun-16 12:34 203 0 gusting 8 21.1
2019-Jun-16 12:29 195 20.0
2019-Jun-16 12:24 250 20.6
2019-Jun-16 12:20 355 20.6
2019-Jun-16 12:14 203 0 gusting 6 19.4
2019-Jun-16 12:09 212 0 gusting 6 19.4
2019-Jun-16 12:04 174 19.4
2019-Jun-16 11:59 276 0 gusting 6 19.4
2019-Jun-16 11:55 257 0 gusting 6 20.0
2019-Jun-16 11:49 241 0 gusting 6 20.6
2019-Jun-16 11:45 209 20.6
2019-Jun-16 11:39 186 0 gusting 4 20.0
2019-Jun-16 11:34 275 19.4
2019-Jun-16 11:29 165 0 gusting 5 19.4
2019-Jun-16 11:24 202 0 gusting 5 18.9
2019-Jun-16 11:19 242 0 gusting 5 18.9
2019-Jun-16 11:14 184 0 gusting 5 18.3
2019-Jun-16 11:09 184 0 gusting 5 18.3
2019-Jun-16 11:05 168 18.9
2019-Jun-16 10:59 175 18.3
2019-Jun-16 10:54 182 18.3
2019-Jun-16 10:49 173 0 gusting 5 17.8
2019-Jun-16 10:44 256 0 gusting 7 17.8
2019-Jun-16 10:40 238 0 gusting 7 17.8
2019-Jun-16 10:34 209 0 gusting 7 17.8
2019-Jun-16 10:29 238 0 gusting 7 17.8
2019-Jun-16 10:25 304 18.3
2019-Jun-16 10:19 224 17.8
2019-Jun-16 10:14 259 17.8
2019-Jun-16 10:10 300 17.2
2019-Jun-16 10:04 310 0 gusting 6 17.2
2019-Jun-16 09:59 254 0 gusting 6 17.2
2019-Jun-16 09:54 206 0 gusting 6 17.2
2019-Jun-16 09:49 271 17.2
2019-Jun-16 09:45 273 17.8
2019-Jun-16 09:39 248 17.8
2019-Jun-16 09:34 233 0 gusting 8 17.8
2019-Jun-16 09:29 259 0 gusting 8 17.8
2019-Jun-16 09:24 168 0 gusting 8 18.3
2019-Jun-16 09:20 219 0 gusting 8 18.3
2019-Jun-16 09:14 239 0 gusting 7 18.3
2019-Jun-16 09:09 241 0 gusting 7 17.8
2019-Jun-16 09:04 238 0 gusting 7 17.8
2019-Jun-16 08:59 142 1 gusting 7 17.8
2019-Jun-16 08:55 235 0 gusting 6 17.8
2019-Jun-16 08:49 197 0 gusting 5 17.8
2019-Jun-16 08:44 197 0 gusting 5 17.8
2019-Jun-16 08:40 267 0 gusting 5 17.8
2019-Jun-16 08:34 282 0 gusting 5 17.8
2019-Jun-16 08:29 232 0 gusting 6 17.8
2019-Jun-16 08:25 283 1 gusting 6 17.8
2019-Jun-16 08:19 307 0 gusting 7 17.8
2019-Jun-16 08:14 215 1 gusting 7 17.8
2019-Jun-16 08:09 301 1 gusting 7 17.8
2019-Jun-16 08:04 226 1 gusting 7 17.8
2019-Jun-16 08:00 130 0 gusting 7 17.2
2019-Jun-16 07:54 234 0 gusting 7 17.2
2019-Jun-16 07:49 180 0 gusting 7 17.8
2019-Jun-16 07:45 233 0 gusting 6 17.2
2019-Jun-16 07:39 198 1 gusting 6 17.8
2019-Jun-16 07:34 286 1 gusting 6 17.8
2019-Jun-16 07:30 312 1 gusting 7 17.2
2019-Jun-16 07:24 350 1 gusting 7 17.2
2019-Jun-16 07:20 286 2 gusting 7 17.2
2019-Jun-16 07:14 180 1 gusting 7 16.7
2019-Jun-16 07:09 242 1 gusting 7 16.7
2019-Jun-16 07:05 233 0 gusting 7 17.2
2019-Jun-16 06:59 187 0 gusting 7 17.2
2019-Jun-16 06:54 180 0 gusting 7 16.1
2019-Jun-16 06:49 173 0 gusting 6 16.1
2019-Jun-16 06:44 204 0 gusting 6 16.1
2019-Jun-16 06:39 151 0 gusting 6 15.0
2019-Jun-16 06:34 315 15.0
2019-Jun-16 06:29 302 15.6
2019-Jun-16 06:24 191 0 gusting 7 15.0
2019-Jun-16 06:19 215 0 gusting 7 15.0
2019-Jun-16 06:14 193 0 gusting 7 15.0
2019-Jun-16 06:09 217 15.0
2019-Jun-16 06:04 211 14.4
2019-Jun-16 05:59 258 14.4
2019-Jun-16 05:55 284 14.4
2019-Jun-16 05:49 286 14.4
2019-Jun-16 05:44 196 14.4
2019-Jun-16 05:40 192 14.4
2019-Jun-16 05:34 171 14.4
2019-Jun-16 05:29 232 13.9
2019-Jun-16 05:25 187 13.9
2019-Jun-16 05:19 209 13.9
2019-Jun-16 05:14 188 13.9
2019-Jun-16 05:10 178 13.9
2019-Jun-16 05:04 229 13.9
2019-Jun-16 04:59 203 13.9
2019-Jun-16 04:54 192 13.3
2019-Jun-16 04:49 200 13.3
2019-Jun-16 04:44 170 13.3
2019-Jun-16 04:39 225 13.3
2019-Jun-16 04:34 165 13.3
2019-Jun-16 04:30 166 13.3
2019-Jun-16 04:24 178 13.3
2019-Jun-16 04:19 239 13.3
2019-Jun-16 04:14 246 13.3
2019-Jun-16 04:09 155 13.3
2019-Jun-16 04:05 219 13.3
2019-Jun-16 03:59 163 13.3
2019-Jun-16 03:54 155 13.3
2019-Jun-16 03:49 257 13.3
2019-Jun-16 03:44 171 13.3
2019-Jun-16 03:39 164 13.3
2019-Jun-16 03:34 153 13.3
2019-Jun-16 03:29 190 13.3
2019-Jun-16 03:25 193 13.3
2019-Jun-16 03:19 196 13.3
2019-Jun-16 03:14 210 13.3
2019-Jun-16 03:10 207 13.3
2019-Jun-16 03:04 178 13.3
2019-Jun-16 02:59 178 13.3
2019-Jun-16 02:54 177 13.3
2019-Jun-16 02:49 177 13.3
2019-Jun-16 02:45 177 13.3
2019-Jun-16 02:39 177 12.8
2019-Jun-16 02:35 177 12.8
2019-Jun-16 02:29 177 12.8
2019-Jun-16 02:24 177 12.8
2019-Jun-16 02:19 177 12.8
2019-Jun-16 02:14 213 12.8
2019-Jun-16 02:09 219 12.8
2019-Jun-16 02:04 222 12.8
2019-Jun-16 01:59 222 12.8
2019-Jun-16 01:55 222 12.8
2019-Jun-16 01:49 222 12.8
2019-Jun-16 01:44 221 12.8
2019-Jun-16 01:39 187 12.8
2019-Jun-16 01:35 187 12.8
2019-Jun-16 01:29 207 12.8
2019-Jun-16 01:24 207 12.8
2019-Jun-16 01:19 192 12.8
2019-Jun-16 01:14 261 12.8
2019-Jun-16 01:10 254 12.8
2019-Jun-16 01:04 227 12.8
2019-Jun-16 00:59 175 12.8
2019-Jun-16 00:54 167 12.8
2019-Jun-16 00:49 248 12.8
2019-Jun-16 00:45 223 12.8
2019-Jun-16 00:39 229 13.3
2019-Jun-16 00:35 263 12.8
2019-Jun-16 00:29 230 12.8
2019-Jun-16 00:24 227 12.8
2019-Jun-16 00:20 195 12.8
2019-Jun-16 00:14 173 12.8
2019-Jun-16 00:09 212 12.8
2019-Jun-16 00:04 160 12.8
2019-Jun-15 23:59 258 12.8
2019-Jun-15 23:55 261 12.8
2019-Jun-15 23:49 146 12.8
2019-Jun-15 23:44 271 12.8
2019-Jun-15 23:40 272 13.3
2019-Jun-15 23:34 234 13.3
2019-Jun-15 23:29 252 13.9
2019-Jun-15 23:25 237 13.9
2019-Jun-15 23:19 197 13.9
2019-Jun-15 23:15 189 13.9
2019-Jun-15 23:09 252 13.9
2019-Jun-15 23:04 234 13.9
2019-Jun-15 23:00 261 13.9
2019-Jun-15 22:54 229 13.3
2019-Jun-15 22:50 214 13.9
2019-Jun-15 22:44 214 13.9
2019-Jun-15 22:39 211 13.3
2019-Jun-15 22:35 189 13.3
2019-Jun-15 22:29 179 13.3
2019-Jun-15 22:24 231 13.9
2019-Jun-15 22:19 237 13.9
2019-Jun-15 22:14 211 13.9
2019-Jun-15 22:09 211 13.9
2019-Jun-15 22:05 212 13.9
2019-Jun-15 21:59 208 13.9
2019-Jun-15 21:54 250 13.9
2019-Jun-15 21:48 248 13.9
2019-Jun-15 21:45 252 13.9
2019-Jun-15 21:39 233 13.9
2019-Jun-15 21:35 229 14.4
2019-Jun-15 21:29 171 14.4
2019-Jun-15 21:24 166 14.4
2019-Jun-15 21:20 203 15.0
2019-Jun-15 21:14 242 15.0
2019-Jun-15 21:09 210 15.0
2019-Jun-15 21:04 210 15.0
2019-Jun-15 20:59 277 15.6
2019-Jun-15 20:55 252 15.6
2019-Jun-15 20:49 234 15.6
2019-Jun-15 20:44 265 15.6
2019-Jun-15 20:39 271 15.6
2019-Jun-15 20:34 268 15.6
2019-Jun-15 20:29 253 15.6
2019-Jun-15 20:24 286 15.6
2019-Jun-15 20:20 201 15.6
2019-Jun-15 20:14 231 15.6
2019-Jun-15 20:09 230 15.6
2019-Jun-15 20:04 234 15.6
2019-Jun-15 19:59 223 15.6
2019-Jun-15 19:55 225 15.6
2019-Jun-15 19:49 227 16.1
2019-Jun-15 19:44 244 16.1
2019-Jun-15 19:40 248 16.1
2019-Jun-15 19:34 219 16.1
2019-Jun-15 19:29 233 16.7
2019-Jun-15 19:25 234 16.7
2019-Jun-15 19:19 232 16.7
2019-Jun-15 19:14 182 17.2
2019-Jun-15 19:10 246 17.2
2019-Jun-15 19:04 236 17.2
2019-Jun-15 18:59 227 17.8
2019-Jun-15 18:55 248 17.8
2019-Jun-15 18:49 285 18.3
2019-Jun-15 18:44 233 0 18.3
2019-Jun-15 18:40 223 0 gusting 5 18.3
2019-Jun-15 18:34 229 0 gusting 6 18.9
2019-Jun-15 18:29 221 0 gusting 6 18.9
2019-Jun-15 18:25 188 0 gusting 6 19.4
2019-Jun-15 18:19 242 0 gusting 6 19.4
2019-Jun-15 18:14 256 0 gusting 8 19.4
2019-Jun-15 18:09 186 0 gusting 8 18.9
2019-Jun-15 18:04 284 1 gusting 8 19.4
2019-Jun-15 18:00 267 1 gusting 8 19.4
2019-Jun-15 17:54 243 0 gusting 8 18.9
2019-Jun-15 17:49 223 0 gusting 8 18.9
2019-Jun-15 17:45 263 0 gusting 8 20.0
2019-Jun-15 17:39 247 0 gusting 6 20.0
2019-Jun-15 17:34 181 0 gusting 6 20.6
2019-Jun-15 17:29 213 0 gusting 6 20.6
2019-Jun-15 17:24 261 0 gusting 7 20.6
2019-Jun-15 17:20 201 0 gusting 7 20.6
2019-Jun-15 17:14 148 0 gusting 7 21.1
2019-Jun-15 17:09 275 1 gusting 6 21.1
2019-Jun-15 17:05 248 0 gusting 6 20.6
2019-Jun-15 16:59 167 1 gusting 6 21.1
2019-Jun-15 16:54 234 1 gusting 7 20.6
2019-Jun-15 16:49 227 0 gusting 7 20.0
2019-Jun-15 16:44 200 1 gusting 9 21.1
2019-Jun-15 16:39 222 1 gusting 9 21.1
2019-Jun-15 16:34 191 1 gusting 9 21.1
2019-Jun-15 16:29 311 1 gusting 9 21.1
2019-Jun-15 16:25 282 0 gusting 9 21.1
2019-Jun-15 16:19 247 1 gusting 9 20.6
2019-Jun-15 16:14 276 0 gusting 8 21.1
2019-Jun-15 16:09 303 1 gusting 6 21.1
2019-Jun-15 16:04 282 0 gusting 6 21.1
2019-Jun-15 15:59 248 0 gusting 6 21.1
2019-Jun-15 15:54 304 0 gusting 6 21.1
2019-Jun-15 15:49 265 1 gusting 5 20.6
2019-Jun-15 15:45 229 0 gusting 5 20.0
2019-Jun-15 15:39 005 1 gusting 6 20.6
2019-Jun-15 15:34 304 1 gusting 6 19.4
2019-Jun-15 15:29 221 1 gusting 6 19.4
2019-Jun-15 15:24 330 0 gusting 6 19.4
2019-Jun-15 15:20 221 0 gusting 6 19.4
2019-Jun-15 15:14 294 0 gusting 6 19.4
2019-Jun-15 15:09 198 0 gusting 9 19.4
2019-Jun-15 15:05 321 0 gusting 9 19.4
2019-Jun-15 14:59 174 1 gusting 9 20.0
2019-Jun-15 14:54 169 1 gusting 9 21.1
2019-Jun-15 14:50 187 1 gusting 6 21.7
2019-Jun-15 14:44 248 0 gusting 6 21.1
2019-Jun-15 14:39 239 0 gusting 7 20.6
2019-Jun-15 14:34 232 1 gusting 7 20.0
2019-Jun-15 14:29 221 0 gusting 12 20.6
2019-Jun-15 14:24 282 1 gusting 12 20.0
2019-Jun-15 14:20 201 1 gusting 12 20.0
2019-Jun-15 14:14 228 0 gusting 12 20.6
2019-Jun-15 14:09 200 1 gusting 6 21.1
2019-Jun-15 14:05 183 1 gusting 11 21.7
2019-Jun-15 13:59 203 1 gusting 11 21.7
2019-Jun-15 13:54 261 1 gusting 11 21.1
2019-Jun-15 13:49 234 2 gusting 11 21.7
2019-Jun-15 13:44 160 2 gusting 13 22.2
2019-Jun-15 13:40 202 2 gusting 13 21.7
2019-Jun-15 13:34 263 2 gusting 13 21.7
2019-Jun-15 13:29 216 2 gusting 13 21.1
2019-Jun-15 13:25 311 1 gusting 8 20.6
2019-Jun-15 13:19 199 0 gusting 7 21.7
2019-Jun-15 13:14 274 21.1
2019-Jun-15 13:09 188 1 gusting 7 21.7
2019-Jun-15 13:04 196 2 gusting 7 21.7
2019-Jun-15 13:00 215 2 gusting 7 21.1
2019-Jun-15 12:54 180 1 gusting 8 21.7
2019-Jun-15 12:49 202 1 gusting 8 21.7
2019-Jun-15 12:45 207 1 gusting 8 21.7
2019-Jun-15 12:39 232 0 gusting 8 21.1
2019-Jun-15 12:35 20.6
2019-Jun-15 12:29 159 0 gusting 7 20.6
2019-Jun-15 12:24 150 1 gusting 7 21.1
2019-Jun-15 12:20 174 1 gusting 7 20.6
2019-Jun-15 12:14 269 1 gusting 6 20.6
2019-Jun-15 12:10 140 0 gusting 6 20.6
2019-Jun-15 12:04 259 0 gusting 6 20.0
2019-Jun-15 11:59 295 0 gusting 6 20.0
2019-Jun-15 11:54 164 0 gusting 2 20.0
2019-Jun-15 11:49 214 0 gusting 6 19.4
2019-Jun-15 11:44 260 1 gusting 6 19.4
2019-Jun-15 11:40 286 1 gusting 8 20.0
2019-Jun-15 11:34 168 1 gusting 8 20.6
2019-Jun-15 11:29 234 1 gusting 10 20.0
2019-Jun-15 11:25 219 1 gusting 10 20.0
2019-Jun-15 11:19 225 1 gusting 10 20.6
2019-Jun-15 11:14 173 1 gusting 10 20.0
2019-Jun-15 11:10 192 1 gusting 8 19.4
2019-Jun-15 11:04 213 1 gusting 8 19.4
2019-Jun-15 11:00 236 0 gusting 7 18.9
2019-Jun-15 10:54 187 0 gusting 7 19.4
2019-Jun-15 10:49 253 0 gusting 7 19.4
2019-Jun-15 10:45 252 1 gusting 6 18.9
2019-Jun-15 10:39 332 1 gusting 6 19.4
2019-Jun-15 10:34 049 0 gusting 6 19.4
2019-Jun-15 10:30 225 0 gusting 6 18.9
2019-Jun-15 10:24 269 0 gusting 6 18.9
2019-Jun-15 10:19 278 1 gusting 6 18.9
2019-Jun-15 10:14 302 1 gusting 6 18.3
2019-Jun-15 10:09 240 1 gusting 6 18.9
2019-Jun-15 10:05 221 1 gusting 6 18.3
2019-Jun-15 09:59 180 0 gusting 4 18.3
2019-Jun-15 09:54 244 18.3
2019-Jun-15 09:50 235 0 gusting 6 17.8
2019-Jun-15 09:44 278 0 gusting 6 17.8
2019-Jun-15 09:39 192 0 gusting 6 17.8
2019-Jun-15 09:35 250 0 gusting 6 17.8
2019-Jun-15 09:29 205 1 gusting 6 18.3
2019-Jun-15 09:24 345 1 gusting 7 17.8
2019-Jun-15 09:20 258 0 gusting 7 18.3
2019-Jun-15 09:14 218 0 gusting 7 17.8
2019-Jun-15 09:09 195 0 gusting 7 17.8
2019-Jun-15 09:04 273 0 gusting 7 17.8
2019-Jun-15 08:59 254 1 gusting 7 17.8
2019-Jun-15 08:55 167 1 gusting 8 17.8
2019-Jun-15 08:49 168 0 gusting 8 17.8
2019-Jun-15 08:45 151 1 gusting 8 17.2
2019-Jun-15 08:39 213 0 gusting 8 17.2
2019-Jun-15 08:34 314 0 gusting 6 17.8
2019-Jun-15 08:30 215 1 gusting 6 17.2
2019-Jun-15 08:24 227 0 gusting 6 17.2
2019-Jun-15 08:19 188 0 gusting 6 17.8
2019-Jun-15 08:14 212 0 gusting 6 17.8
2019-Jun-15 08:09 227 1 gusting 6 17.8
2019-Jun-15 08:05 229 1 gusting 6 17.8
2019-Jun-15 07:59 271 0 gusting 6 17.2
2019-Jun-15 07:54 229 0 gusting 6 17.2
2019-Jun-15 07:49 232 0 gusting 6 17.2
2019-Jun-15 07:44 252 0 gusting 6 17.2
2019-Jun-15 07:39 232 1 gusting 6 16.7
2019-Jun-15 07:34 342 1 gusting 10 16.7
2019-Jun-15 07:29 218 0 gusting 10 16.7
2019-Jun-15 07:25 190 0 gusting 10 16.7
2019-Jun-15 07:19 226 0 gusting 10 16.7
2019-Jun-15 07:14 184 0 gusting 8 16.7
2019-Jun-15 07:09 187 16.7
2019-Jun-15 07:04 233 0 gusting 8 16.1
2019-Jun-15 07:00 316 16.1
2019-Jun-15 06:54 196 16.1
2019-Jun-15 06:49 248 16.1
2019-Jun-15 06:45 211 16.1
2019-Jun-15 06:39 262 15.6
2019-Jun-15 06:34 214 15.6
2019-Jun-15 06:29 162 15.0
2019-Jun-15 06:24 162 14.4
2019-Jun-15 06:20 162 14.4
2019-Jun-15 06:14 162 14.4
2019-Jun-15 06:09 162 13.9
2019-Jun-15 06:04 162 13.3
2019-Jun-15 05:59 162 13.9
2019-Jun-15 05:55 162 13.3
2019-Jun-15 05:49 162 12.8
2019-Jun-15 05:44 162 12.2
2019-Jun-15 05:39 162 11.7
2019-Jun-15 05:34 162 11.7
2019-Jun-15 05:30 162 11.7
2019-Jun-15 05:24 147 11.7
2019-Jun-15 05:19 148 11.7
2019-Jun-15 05:15 148 11.7
2019-Jun-15 05:09 148 11.7
2019-Jun-15 05:04 147 11.7
2019-Jun-15 04:59 147 11.7
2019-Jun-15 04:54 103 11.1
2019-Jun-15 04:50 103 11.1
2019-Jun-15 04:44 103 11.1
2019-Jun-15 04:39 074 11.1
2019-Jun-15 04:34 065 11.1
2019-Jun-15 04:29 065 11.1
2019-Jun-15 04:25 065 11.1
2019-Jun-15 04:19 065 11.1
2019-Jun-15 04:14 065 11.1
2019-Jun-15 04:10 063 11.1
2019-Jun-15 04:04 063 11.1
2019-Jun-15 03:59 063 11.1
2019-Jun-15 03:55 279 11.1
2019-Jun-15 03:49 279 11.1
2019-Jun-15 03:45 279 11.1
2019-Jun-15 03:39 279 11.7
2019-Jun-15 03:34 279 11.7
2019-Jun-15 03:30 279 11.7
2019-Jun-15 03:24 279 12.2
2019-Jun-15 03:19 279 12.2
2019-Jun-15 03:14 279 12.2
2019-Jun-15 03:09 279 12.2
2019-Jun-15 03:04 279 12.8
2019-Jun-15 02:59 279 12.8
2019-Jun-15 02:54 279 12.8
2019-Jun-15 02:49 279 12.8
2019-Jun-15 02:45 279 12.8
2019-Jun-15 02:39 279 12.8
2019-Jun-15 02:34 279 13.3
2019-Jun-15 02:30 279 13.3
2019-Jun-15 02:24 279 13.3
2019-Jun-15 02:19 279 13.3
2019-Jun-15 02:15 279 13.3
2019-Jun-15 02:09 279 13.3
2019-Jun-15 02:04 279 13.3